Location: Newark
(52.3500°N, 175.9667°E)
Time: 23:19:49
(UTC+00:00)

S-56A Canister/Altair - Pass Details

Date: 27 April 2021
Orbit: 632 x 2501 km, 38.9° (Epoch: 11 May)

Event Time Altitude Azimuth Distance (km) Brightness Sun altitude
Rises 14:05:01 0° 264° (W) 4,128 - -19.4°
Reaches altitude 10° 14:10:10 10° 236° (WSW) 2,726 - -19.0°
Maximum altitude 14:12:26 12° 215° (SW) 2,403 - -18.8°
Drops below altitude 10° 14:14:30 10° 193° (SSW) 2,399 - -18.7°
Sets 14:18:18 0° 161° (SSE) 3,091 - -18.4°
